Regional Weather Roundup
Issued by NWS Northern Indiana

Home | Current Version | Previous Version | Graphics & Text | Print | Product List | Glossary On
Versions: 1 2 3 4 5 6 7 8 9 10 11 12 13 14 15 16 17 18 19 20 21 22 23 24 25 26 27 28 29 30 31 32 33 34 35 36 37 38 39 40 41 42 43 44 45 46 47 48 49 50
087
ASUS43 KIWX 270800
RWRIWX

KIWX WEATHER ROUNDUP
NATIONAL WEATHER SERVICE NORTHERN INDIANA
300 AM EST MON FEB 27 2017

NOTE: "FAIR" INDICATES FEW OR NO CLOUDS BELOW 12,000 FEET WITH NO
SIGNIFICANT WEATHER AND/OR OBSTRUCTIONS TO VISIBILITY.

* THESE STATIONS ARE NOT UNDER NWS QUALITY CONTROL. THEY ALSO MAY NOT
  REPORT WEATHER SUCH AS PRECIPITATION OR FOG.

INZ001>027-270900-
NORTHERN INDIANA

CITY           SKY/WX    TMP DP  RH WIND       PRES   REMARKS
MICHIGAN CITY* CLEAR     34  25  69 SW8       30.12R WCI  27
KNOX*          CLEAR     30   7  37 S9        30.14R WCI  22
SOUTH BEND     CLEAR     32  22  66 SW8       30.12R WCI  25
GOSHEN         CLEAR     34  22  61 SW9       30.13R WCI  27
ANGOLA*        CLEAR     36  25  64 SW8       30.10F
FORT WAYNE     PTCLDY    31  23  72 SW8       30.15R WCI  23
PERU/GRISSOM   CLEAR     30  23  74 SW8       30.13S WCI  22

$$
INZ028>050-270900-
CENTRAL INDIANA

CITY           SKY/WX    TMP DP  RH WIND       PRES   REMARKS
LAFAYETTE      CLOUDY    33  23  66 W3        30.16R
KOKOMO*        CLOUDY    34  23  64 SW8       30.16R WCI  27
MUNCIE*        CLOUDY    41  21  44 SW6       30.16R
INDIANAPOLIS   LGT RAIN  41  31  67 W9        30.17R

$$
MIZ043>046-050>051-056>058-064>065-071>073-077>080-270900-
SOUTHWEST LOWER MICHIGAN

CITY           SKY/WX    TMP DP  RH WIND       PRES   REMARKS
BATTLE CREEK   CLEAR     32  24  72 SW8       30.08R WCI  25
BENTON HARBOR  MOCLDY    38  25  59 SW15      30.10R
COLDWATER*     CLEAR     35  23  61 SW8       30.10S WCI  28
HILLSDALE*     CLEAR     34  23  64 SW10      30.09S WCI  26
HOLLAND        CLEAR     37  31  78 SW12      30.07R
GRAND RAPIDS   MOCLDY    37  28  70 SW13      30.05R
KALAMAZOO      CLEAR     35  22  58 SW9       30.09R WCI  28
STURGIS*       CLEAR     32  24  72 SW6       30.10F WCI  26
THREE RIVERS*  FAIR      31  23  72 SW6       30.10F WCI  25

$$
OHZ001>008-015>018-024>025-270900-
NORTHWEST OHIO

CITY           SKY/WX    TMP DP  RH WIND       PRES   REMARKS
DEFIANCE       CLEAR     29  21  72 S3        30.15R
FINDLAY        CLEAR     33  22  63 S9        30.15R WCI  25
TOLEDO EXPRESS CLEAR     34  22  61 SW7       30.14R WCI  28
TOLEDO METCALF CLEAR     34  23  64 SW7       30.15S WCI  28
LIMA           CLEAR     36  22  56 S10       30.16R

$$
AND FOR LAKE MICHIGAN COASTAL AND OPEN LAKE BUOY OBSERVATIONS

STATION/POSITION TEMP    WIND        PRES    VSBY  WAVE
                 AIR SEA DIR/SP/G                  HT/PER
                 (F)     (DEG/KT/KT) (MB)    (MI)  (FT/S)
CALUMET HARBOR    36     220/  4/  8 1018.6R
MICHIGAN CITY     38     190/ 14/ 17   N/A
BURNS HARBOR      38     210/ 14/ 19 1020.0R
SAINT JOSEPH      39     210/ 16/ 20 1019.6

$$
&&




USA.gov is the U.S. government's official web portal to all federal, state and local government web resources and services.